Weather History for Dalhart, TX

Change the Weather History Date:

Monday, November 11, 2013

  Actual Average Record
Temperature  
Mean Temperature 51 °F 46 °F  
Max Temperature 72 °F 62 °F 83 °F (1956)
Min Temperature 30 °F 30 °F 13 °F (1986)
Degree Days  
Heating Degree Days 14 19  
Month to date heating degree days 175 186  
Since 1 July heating degree days 478 546  
Cooling Degree Days 0 0  
Month to date cooling degree days 0 0  
Year to date cooling degree days 1576 1138  
Moisture  
Dew Point 35 °F    
Average Humidity 60    
Maximum Humidity 100    
Minimum Humidity 19    
Precipitation  
Precipitation T in 0.02 in 0.21 in (1997)
Month to date precipitation 0.40 0.30  
Year to date precipitation 7.18 16.77  
Snow  
Snow 0.00 in 0.00 in 2.10 in (1997)
Month to date snowfall 0.0 0.3  
Since 1 July snowfall T 0.9  
Since 1 September snowfall T 0.9  
Snow Depth 0.00 in    
Sea Level Pressure  
Sea Level Pressure 30.28 in    
Wind  
Wind Speed 12 mph (NNE)    
Max Wind Speed 28 mph    
Max Gust Speed 35 mph    
Visibility 4 miles    
Events Fog , Snow    
T = Trace of Precipitation, MM = Missing Value Source: NWS Daily Summary

Daily Weather History Graph

Daily Weather History Graph

Search for Another Location

Airport:

Trip Planner

Search our weather history database for the weather conditions in past years. The results will help you decide how hot, cold, wet, or windy it might be!

Date:

Astronomy

Nov. 11, 2013 Rise Set
Actual Time 7:22 AM CST 5:45 PM CST
Civil Twilight 6:55 AM CST 6:12 PM CST
Nautical Twilight 6:25 AM CST 6:42 PM CST
Astronomical Twilight 5:54 AM CST 7:13 PM CST
Moon 2:17 PM CST (11/11) 1:21 AM CST (11/11)
Length of Visible Light 11h 16m
Length of Day
10h 22m
Waxing Gibbous, 66% of the Moon is Illuminated
Nov 11
Waxing Gibbous
Nov 17
Full
Nov 25
Last Quarter
Dec 2
New
Dec 9
First Quarter

Hourly Weather History & Observations

Time (CST) Temp. Windchill Dew Point Humidity Pressure Visibility Wind Dir Wind Speed Gust Speed Precip Events Conditions
12:11 AM 42.8 °F 39.3 °F 39.2 °F 87% 30.23 in 1.2 mi ESE 5.8 mph - N/A   Clear
12:17 AM 42.8 °F 39.3 °F 41.0 °F 93% 30.22 in 0.5 mi SE 5.8 mph - N/A Fog Fog
12:19 AM 42.8 °F 39.3 °F 41.0 °F 93% 30.22 in 0.2 mi SE 5.8 mph - N/A Fog Fog
12:43 AM 39.2 °F - 39.2 °F 100% 30.22 in 0.5 mi Calm Calm - N/A Fog Fog
12:53 AM 41.0 °F - 39.9 °F 96% 30.17 in 0.2 mi Calm Calm - N/A Fog Fog
1:53 AM 43.0 °F 39.5 °F 42.1 °F 97% 30.15 in 0.2 mi WSW 5.8 mph - N/A Fog Fog
2:53 AM 42.1 °F 38.4 °F 42.1 °F 100% 30.14 in 0.2 mi West 5.8 mph - N/A Fog Fog
3:53 AM 41.0 °F 37.1 °F 39.9 °F 96% 30.12 in 0.2 mi NW 5.8 mph - N/A Fog Fog
4:53 AM 39.0 °F - 37.9 °F 96% 30.14 in 0.2 mi Calm Calm - N/A Fog Fog
5:30 AM 35.6 °F 30.7 °F 33.8 °F 93% 30.18 in 0.5 mi West 5.8 mph - N/A Fog Fog
5:39 AM 35.6 °F 30.7 °F 33.8 °F 93% 30.18 in 1.2 mi West 5.8 mph - N/A   Scattered Clouds
5:45 AM 35.6 °F 29.9 °F 33.8 °F 93% 30.18 in 3.0 mi West 6.9 mph - N/A   Partly Cloudy
5:53 AM 35.1 °F 30.1 °F 34.0 °F 96% 30.16 in 4.0 mi West 5.8 mph - N/A   Clear
6:53 AM 36.0 °F 29.6 °F 32.0 °F 86% 30.19 in 9.0 mi NW 8.1 mph - 0.00 in Snow Light Snow
7:53 AM 39.0 °F 33.4 °F 32.0 °F 76% 30.20 in 10.0 mi NNW 8.1 mph - 0.00 in   Clear
8:53 AM 44.1 °F 39.5 °F 36.0 °F 73% 30.21 in 10.0 mi NW 8.1 mph - N/A   Clear
9:53 AM 53.1 °F - 37.9 °F 57% 30.20 in 10.0 mi NW 8.1 mph - N/A   Clear
10:53 AM 61.0 °F - 35.1 °F 38% 30.19 in 10.0 mi North 8.1 mph - N/A   Clear
11:53 AM 66.0 °F - 30.9 °F 27% 30.18 in 10.0 mi NNE 10.4 mph - N/A   Clear
12:53 PM 69.1 °F - 30.0 °F 23% 30.15 in 10.0 mi NNE 9.2 mph - N/A   Clear
1:53 PM 70.0 °F - 28.9 °F 22% 30.13 in 10.0 mi ENE 8.1 mph - N/A   Clear
2:53 PM 71.1 °F - 28.0 °F 20% 30.12 in 10.0 mi NE 10.4 mph - N/A   Clear
3:53 PM 71.1 °F - 27.0 °F 19% 30.14 in 10.0 mi ENE 13.8 mph - N/A   Clear
4:53 PM 64.9 °F - 33.1 °F 31% 30.19 in 10.0 mi ENE 23.0 mph 28.8 mph N/A   Clear
5:53 PM 55.0 °F - 39.9 °F 57% 30.27 in 10.0 mi NE 18.4 mph 29.9 mph N/A   Clear
6:53 PM 42.1 °F 33.3 °F 36.0 °F 79% 30.37 in 10.0 mi NE 19.6 mph 33.4 mph N/A   Partly Cloudy
7:06 PM 42.8 °F 34.0 °F 37.4 °F 81% 30.37 in 8.0 mi NE 20.7 mph 33.4 mph N/A   Mostly Cloudy
7:42 PM 39.2 °F 28.7 °F 37.4 °F 93% 30.41 in 3.0 mi NE 23.0 mph 27.6 mph N/A   Overcast
7:46 PM 39.2 °F 30.2 °F 37.4 °F 93% 30.41 in 1.8 mi NE 17.3 mph 27.6 mph N/A   Overcast
7:53 PM 39.0 °F 28.5 °F 37.0 °F 93% 30.42 in 1.2 mi NE 23.0 mph 26.5 mph N/A   Overcast
8:53 PM 36.0 °F 25.6 °F 34.0 °F 93% 30.45 in 1.2 mi NE 18.4 mph 27.6 mph 0.00 in   Overcast
9:07 PM 35.6 °F 24.8 °F 33.8 °F 93% 30.46 in 1.2 mi NNE 19.6 mph 25.3 mph N/A   Overcast
9:49 PM 33.8 °F 22.5 °F 32.0 °F 93% 30.50 in 2.5 mi NNE 19.6 mph 26.5 mph N/A   Overcast
9:53 PM 34.0 °F 22.1 °F 32.0 °F 92% 30.49 in 3.0 mi NNE 21.9 mph 28.8 mph N/A   Overcast
10:08 PM 33.8 °F 21.6 °F 30.2 °F 87% 30.52 in 2.0 mi NNE 23.0 mph 28.8 mph N/A   Overcast
10:35 PM 32.0 °F 20.8 °F 30.2 °F 93% 30.54 in 1.2 mi NNE 17.3 mph 28.8 mph N/A   Overcast
10:53 PM 32.0 °F 20.5 °F 30.0 °F 92% 30.53 in 1.2 mi NNE 18.4 mph 26.5 mph N/A   Overcast
11:44 PM 30.2 °F 16.2 °F 28.4 °F 93% 30.59 in 2.5 mi NNE 25.3 mph 31.1 mph N/A   Overcast
11:53 PM 30.0 °F 16.6 °F 28.0 °F 92% 30.56 in 3.0 mi NNE 23.0 mph 31.1 mph N/A   Overcast